Regional Weather Roundup
Issued by NWS

Home | Current Version | Previous Version | Text Only | Print | Product List | Glossary On
Versions: 1 2 3 4 5 6 7 8 9 10 11 12 13 14 15 16 17 18 19 20 21 22 23 24 25 26 27
000
ASCA42 TJSJ 240810
RWRPR
PUERTO RICO/U.S. VIRGIN ISLANDS HOURLY WEATHER ROUNDUP
NATIONAL WEATHER SERVICE SAN JUAN PR
400 AM AST WED AUG 24 2016

PRZ001>002-007>008-010-240900-
PUERTO RICO

CITY           SKY/WX    TMP DP  RH WIND       PRES   REMARKS
SAN JUAN LMM   PTCLDY    79  77  94 CALM      29.86S
AGUADILLA      CLOUDY    79  75  89 CALM      29.88F
CEIBA          PTCLDY    75  75 100 W3        29.87F
$$

VIZ001>002-240900-
U.S. VIRGIN ISLANDS

CITY           SKY/WX    TMP DP  RH WIND       PRES   REMARKS
CHRISTIANSTED  CLEAR     79  75  89 CALM      29.86R
$$

HOURLY WEATHER ROUNDUP FOR THE NEWS MEDIA

CITY           SKY/WX    TMP DP  RH WIND       PRES   REMARKS
ORLANDO        CLEAR     82  78  88 N7        30.10F HX  91
NEW YORK       CLEAR     70  64  81 W6        30.27S
NEWARK         CLEAR     65  58  78 SW5       30.26F
CHICAGO        CLOUDY    73  64  73 S13G22    30.05S
HARTFORD       CLEAR     60  56  86 CALM      30.24S
BOSTON         CLEAR     66  57  72 SW9       30.23S
DALLAS         PTCLDY    81  73  76 S8        30.09S
PHILADELPHIA   CLEAR     69  59  70 SW6       30.28F
LOS ANGELES    CLEAR     66  57  72 W8        30.02F
WASHINGTON DC  CLEAR     63  59  87 SE3       30.28F



USA.gov is the U.S. government's official web portal to all federal, state and local government web resources and services.